Date String (YYYY-MM-DD hh:mm:ss) UTC,Instrument flags,Ambient pressure (hPa),Sample flow (lpm),Bypass flow (lpm),Sample temperature (°C),Ambient temperature (°C),ASC tube jacket temperature (°C),LED temperature (°C),Box temperature (°C),Sample RH (%),Span deviation,Mass concentration (μg/m³),Mass concentration (μg/m³),Mass concentration (μg/m³)
DateTimeUTC,F1_M11,P_M11,Q1_M11,Q2_M11,T1_M11,T2_M11,T3_M11,T4_M11,T5_M11,U1_M11,ZSPAN_M11,X0_M11,X2_M11,X1_M11
2022-09-29 20:00:00,,0828.1,4.99,0.00,29.7,28.3,00.0,38.4,31.7,16.2,0000.0,0009.34,0003.61,0003.19
2022-09-29 20:01:00,,0828.1,5.01,0.00,29.8,28.5,00.0,38.4,31.7,16.0,0000.0,0009.34,0003.62,0003.18
2022-09-29 20:02:00,,0828.0,4.99,0.00,29.8,28.7,00.0,38.4,31.7,16.0,0000.0,0009.53,0003.59,0003.17
2022-09-29 20:03:00,,0828.0,4.99,0.00,29.8,28.8,00.0,38.4,31.8,16.1,0000.0,0009.31,0003.55,0003.17
2022-09-29 20:04:00,,0828.1,5.01,0.00,29.9,28.9,00.0,38.5,31.9,16.0,0000.0,0009.23,0003.56,0003.17
2022-09-29 20:05:00,,0828.0,5.00,0.00,29.9,27.9,00.0,38.5,31.8,16.1,0000.0,0008.07,0003.57,0003.17
2022-09-29 20:06:00,,0828.0,5.00,0.00,29.8,26.6,00.0,38.4,31.7,15.6,0000.0,0008.49,0003.58,0003.16
2022-09-29 20:07:00,,0828.0,5.00,0.00,29.8,26.6,00.0,38.4,31.6,15.9,0000.0,0008.66,0003.56,0003.16
2022-09-29 20:08:00,,0828.0,5.01,0.00,29.7,26.8,00.0,38.4,31.5,16.0,0000.0,0008.55,0003.54,0003.15
2022-09-29 20:09:00,,0828.0,5.00,0.00,29.7,27.2,00.0,38.3,31.4,16.4,0000.0,0007.76,0003.52,0003.14
2022-09-29 20:10:00,,0828.0,4.99,0.00,29.7,27.6,00.0,38.3,31.5,16.6,0000.0,0007.68,0003.53,0003.15
2022-09-29 20:11:00,,0828.0,5.00,0.00,29.7,27.8,00.0,38.3,31.5,16.9,0000.0,0007.68,0003.52,0003.16
2022-09-29 20:12:00,,0828.0,5.01,0.00,29.7,28.1,00.0,38.3,31.6,16.7,0000.0,0007.55,0003.50,0003.17
2022-09-29 20:13:00,,0828.0,5.00,0.00,29.7,28.3,00.0,38.3,31.6,16.7,0000.0,0006.87,0003.51,0003.18
2022-09-29 20:14:00,,0828.0,5.00,0.00,29.7,28.5,00.0,38.4,31.7,16.6,0000.0,0006.91,0003.55,0003.20
2022-09-29 20:15:00,,0828.0,5.00,0.00,29.8,28.7,00.0,38.4,31.7,16.6,0000.0,0007.64,0003.56,0003.21
2022-09-29 20:16:00,,0827.9,5.00,0.00,29.8,28.8,00.0,38.4,31.8,16.8,0000.0,0007.87,0003.55,0003.22
2022-09-29 20:17:00,,0828.0,5.00,0.00,29.8,28.9,00.0,38.4,31.8,17.3,0000.0,0007.35,0003.52,0003.22
2022-09-29 20:18:00,,0827.9,5.00,0.00,29.9,29.0,00.0,38.5,31.9,17.5,0000.0,0007.39,0003.57,0003.24
2022-09-29 20:19:00,,0827.9,5.00,0.00,29.9,29.1,00.0,38.5,31.9,17.1,0000.0,0007.31,0003.58,0003.25
2022-09-29 20:20:00,,0827.9,5.00,0.00,30.0,28.6,00.0,38.5,31.9,16.9,0000.0,0007.33,0003.60,0003.27
2022-09-29 20:21:00,,0828.0,5.00,0.00,30.0,27.1,00.0,38.5,31.8,16.9,0000.0,0007.32,0003.61,0003.28
2022-09-29 20:22:00,,0827.9,5.01,0.00,29.9,26.6,00.0,38.5,31.7,17.1,0000.0,0007.48,0003.65,0003.29
2022-09-29 20:23:00,,0827.8,5.01,0.00,29.8,26.8,00.0,38.4,31.6,17.3,0000.0,0007.70,0003.68,0003.30
2022-09-29 20:24:00,,0827.8,5.01,0.00,29.8,27.1,00.0,38.4,31.5,17.3,0000.0,0007.73,0003.68,0003.30
2022-09-29 20:25:00,,0827.8,5.00,0.00,29.8,27.4,00.0,38.4,31.5,17.4,0000.0,0008.11,0003.69,0003.30
2022-09-29 20:26:00,,0827.9,4.99,0.00,29.7,27.8,00.0,38.4,31.6,17.6,0000.0,0007.95,0003.71,0003.29
2022-09-29 20:27:00,,0827.9,5.01,0.00,29.8,28.1,00.0,38.4,31.6,17.3,0000.0,0007.91,0003.75,0003.29
2022-09-29 20:28:00,,0827.9,5.01,0.00,29.8,28.3,00.0,38.4,31.7,16.7,0000.0,0007.96,0003.77,0003.29
2022-09-29 20:29:00,,0827.9,5.00,0.00,29.8,28.5,00.0,38.4,31.7,16.5,0000.0,0008.47,0003.77,0003.29
2022-09-29 20:30:00,,0827.9,5.01,0.00,29.8,28.6,00.0,38.4,31.7,17.1,0000.0,0008.57,0003.77,0003.28
2022-09-29 20:31:00,,0827.8,4.99,0.00,29.9,28.8,00.0,38.5,31.8,17.7,0000.0,0008.57,0003.77,0003.28
2022-09-29 20:32:00,,0827.9,5.02,0.00,29.9,28.9,00.0,38.5,31.9,17.6,0000.0,0008.71,0003.76,0003.28
2022-09-29 20:33:00,,0827.9,4.99,0.00,29.9,29.0,00.0,38.5,31.9,17.6,0000.0,0009.37,0003.74,0003.28
2022-09-29 20:34:00,,0827.9,5.01,0.00,30.0,29.0,00.0,38.5,32.0,17.0,0000.0,0009.23,0003.74,0003.27
2022-09-29 20:35:00,,0828.0,5.00,0.00,30.0,27.7,00.0,38.5,31.9,17.1,0000.0,0009.21,0003.74,0003.28
2022-09-29 20:36:00,,0828.0,5.00,0.00,29.9,26.6,00.0,38.5,31.7,17.4,0000.0,0009.03,0003.76,0003.29
2022-09-29 20:37:00,,0827.8,5.00,0.00,29.9,26.6,00.0,38.5,31.7,17.3,0000.0,0008.52,0003.77,0003.30
2022-09-29 20:38:00,,0828.1,5.01,0.00,29.8,26.9,00.0,38.4,31.5,17.4,0000.0,0008.46,0003.74,0003.30
2022-09-29 20:39:00,,0827.9,5.00,0.00,29.8,27.3,00.0,38.4,31.5,17.7,0000.0,0008.75,0003.76,0003.30
2022-09-29 20:40:00,,0827.9,5.00,0.00,29.7,27.6,00.0,38.4,31.5,17.5,0000.0,0008.36,0003.75,0003.31
2022-09-29 20:41:00,,0827.9,4.99,0.00,29.7,27.9,00.0,38.4,31.6,17.5,0000.0,0008.35,0003.77,0003.32
2022-09-29 20:42:00,,0827.9,5.01,0.00,29.8,28.2,00.0,38.4,31.6,17.7,0000.0,0008.48,0003.80,0003.33
2022-09-29 20:43:00,,0827.9,4.99,0.00,29.8,28.4,00.0,38.4,31.7,18.3,0000.0,0008.37,0003.81,0003.33
2022-09-29 20:44:00,,0827.9,5.00,0.00,29.8,28.6,00.0,38.5,31.7,17.6,0000.0,0008.39,0003.82,0003.34
2022-09-29 20:45:00,,0827.8,5.00,0.00,29.8,28.7,00.0,38.5,31.8,17.8,0000.0,0008.33,0003.80,0003.35
2022-09-29 20:46:00,,0827.8,4.99,0.00,29.9,28.8,00.0,38.5,31.8,18.2,0000.0,0008.46,0003.80,0003.34
2022-09-29 20:47:00,,0827.8,4.99,0.00,29.9,28.9,00.0,38.5,31.9,18.6,0000.0,0008.69,0003.81,0003.35
2022-09-29 20:48:00,,0827.8,5.01,0.00,29.9,29.0,00.0,38.5,31.9,18.5,0000.0,0009.02,0003.82,0003.36
2022-09-29 20:49:00,,0827.8,4.99,0.00,30.0,29.1,00.0,38.6,32.0,18.5,0000.0,0009.29,0003.89,0003.38
2022-09-29 20:50:00,,0827.8,4.99,0.00,30.0,29.0,00.0,38.6,32.0,18.5,0000.0,0009.28,0003.89,0003.38
2022-09-29 20:51:00,,0827.7,4.99,0.00,30.0,27.8,00.0,38.6,31.9,18.3,0000.0,0009.36,0003.93,0003.38
2022-09-29 20:52:00,,0827.7,5.00,0.00,30.0,26.7,00.0,38.6,31.8,18.0,0000.0,0009.42,0003.95,0003.37
2022-09-29 20:53:00,,0827.7,4.99,0.00,29.9,26.8,00.0,38.5,31.7,17.7,0000.0,0009.77,0003.95,0003.38
2022-09-29 20:54:00,,0827.7,5.00,0.00,29.9,27.0,00.0,38.5,31.6,17.7,0000.0,0009.98,0003.94,0003.37
2022-09-29 20:55:00,,0827.7,5.01,0.00,29.8,27.4,00.0,38.5,31.6,17.3,0000.0,0009.47,0003.95,0003.37
2022-09-29 20:56:00,,0827.7,5.00,0.00,29.8,27.7,00.0,38.5,31.6,17.6,0000.0,0009.60,0003.95,0003.36
2022-09-29 20:57:00,,0827.7,5.01,0.00,29.8,28.0,00.0,38.5,31.7,17.8,0000.0,0009.43,0003.92,0003.36
2022-09-29 20:58:00,,0827.7,5.00,0.00,29.8,28.3,00.0,38.5,31.7,18.2,0000.0,0009.20,0003.87,0003.34
2022-09-29 20:59:00,,0827.7,4.99,0.00,29.8,28.5,00.0,38.5,31.8,18.4,0000.0,0008.94,0003.86,0003.32
